User: anonymous   Login
Location: Newark
(44.4156°N, 12.1972°E)
Time: 14:07:09
(UTC+00:00)
Language:

STARLINK-1074 - Orbit

View from above orbital plane
View from above orbital plane
View from above satellite
View from above satellite

Ground track
Ground track

The orbit data is extracted from the following two-line orbital elements,

1 44957U 20001AV  20095.25001157 -.00031352  00000-0 -33698-3 0  9997
2 44957  53.0008 319.9059 0007828 329.9656 139.8387 15.62771579 13876
Epoch (UTC): 04 April 2020 06:00:01
Eccentricity: 0.0007828
inclination: 53.0008°
perigee height: 374 km
apogee height: 385 km
right ascension of ascending node: 319.9059°
argument of perigee: 329.9656°
revolutions per day: 15.62771579
mean anomaly at epoch: 139.8387°
orbit number at epoch: 1387

The dashed part of the orbit path shows where the satellite is in the earth's shadow,  

DLR